SPAEB EPGD-EPLB

Flight info

Callsign SPAEB
Flight time N/A
Altitude 11000
Route IRLUN N133 GRUDA N191 SORIX N195 VENES
Aircraft C208/L-SDFGR/C

Departure

Time 2026-04-30 10:54
Airport Gdańsk Lech Wałęsa Airport (EPGD)

Arrival

Time N/A
Airport Lublin Airport (EPLB)
Time Latitude Longitude Altitude Speed Heading
2026-04-30 10:35 54.37903 18.47042 475 ft 0 kts 22°
2026-04-30 10:47 54.37954 18.47052 475 ft 13 kts 332°
2026-04-30 10:47 54.37931 18.46993 474 ft 9 kts 201°
2026-04-30 10:48 54.37861 18.46972 475 ft 12 kts 156°
2026-04-30 10:48 54.37809 18.47124 476 ft 18 kts 114°
2026-04-30 10:48 54.37753 18.47354 478 ft 23 kts 112°
2026-04-30 10:48 54.37687 18.47627 478 ft 25 kts 114°
2026-04-30 10:49 54.37624 18.47866 481 ft 13 kts 111°
2026-04-30 10:49 54.37591 18.48015 484 ft 14 kts 112°
2026-04-30 10:49 54.37550 18.48176 486 ft 15 kts 114°
2026-04-30 10:49 54.37506 18.48349 486 ft 16 kts 116°
2026-04-30 10:50 54.37451 18.48522 489 ft 17 kts 104°
2026-04-30 10:50 54.37423 18.48703 489 ft 14 kts 114°
2026-04-30 10:50 54.37384 18.48858 490 ft 15 kts 112°
2026-04-30 10:50 54.37344 18.49020 488 ft 15 kts 114°
2026-04-30 10:51 54.37301 18.49188 490 ft 16 kts 114°
2026-04-30 10:51 54.37221 18.49264 496 ft 14 kts 207°
2026-04-30 10:51 54.37214 18.49257 496 ft 0 kts 217°
2026-04-30 10:52 54.37199 18.49238 488 ft 11 kts 216°
2026-04-30 10:52 54.37145 18.49093 486 ft 15 kts 291°
2026-04-30 10:53 54.37152 18.49067 492 ft 0 kts 291°
2026-04-30 10:53 54.37214 18.48800 494 ft 66 kts 294°
2026-04-30 10:53 54.37476 18.47802 598 ft 107 kts 290°
2026-04-30 10:53 54.37802 18.46593 924 ft 117 kts 293°
2026-04-30 10:54 54.38111 18.45314 1437 ft 118 kts 299°
2026-04-30 10:54 54.38419 18.43986 1947 ft 120 kts 299°
2026-04-30 10:54 54.38743 18.42671 2465 ft 121 kts 299°
2026-04-30 10:54 54.39068 18.41363 3052 ft 118 kts 302°
2026-04-30 10:55 54.39374 18.40059 3638 ft 118 kts 298°
2026-04-30 10:55 54.39697 18.38758 4145 ft 118 kts 300°
2026-04-30 10:55 54.40024 18.37444 4537 ft 121 kts 300°
2026-04-30 10:55 54.40356 18.36107 4950 ft 125 kts 300°
2026-04-30 10:56 54.40688 18.34733 5341 ft 125 kts 299°
2026-04-30 10:56 54.41025 18.33358 5742 ft 124 kts 301°
2026-04-30 10:56 54.41361 18.31987 6137 ft 126 kts 301°
2026-04-30 10:56 54.41704 18.30601 6530 ft 126 kts 301°
2026-04-30 10:57 54.42044 18.29203 6931 ft 125 kts 300°
2026-04-30 10:57 54.42383 18.27822 7307 ft 126 kts 300°
2026-04-30 10:57 54.42720 18.26446 7680 ft 124 kts 300°
2026-04-30 10:57 54.43045 18.25088 8065 ft 123 kts 301°
2026-04-30 10:58 54.43387 18.23721 8463 ft 124 kts 301°
2026-04-30 10:58 54.43606 18.22263 8862 ft 133 kts 278°
2026-04-30 10:58 54.43413 18.20686 9259 ft 141 kts 252°
2026-04-30 10:58 54.42780 18.19357 9666 ft 148 kts 220°
2026-04-30 10:59 54.41852 18.18593 10076 ft 149 kts 202°
2026-04-30 10:59 54.40901 18.17906 10466 ft 149 kts 204°
2026-04-30 10:59 54.39955 18.17225 10806 ft 149 kts 203°
2026-04-30 10:59 54.38979 18.16521 11073 ft 156 kts 204°
2026-04-30 11:00 54.37951 18.15780 11338 ft 161 kts 203°
2026-04-30 11:00 54.36875 18.15011 11417 ft 176 kts 203°
2026-04-30 11:00 54.35657 18.14588 11313 ft 185 kts 173°
2026-04-30 11:00 54.34421 18.15185 11420 ft 185 kts 145°
2026-04-30 11:01 54.33461 18.16586 11424 ft 180 kts 126°
2026-04-30 11:01 54.32600 18.18151 11416 ft 182 kts 127°
2026-04-30 11:01 54.31721 18.19723 11413 ft 183 kts 127°
2026-04-30 11:01 54.30836 18.21300 11420 ft 183 kts 127°
2026-04-30 11:02 54.29959 18.22868 11412 ft 183 kts 127°
2026-04-30 11:02 54.29075 18.24448 11404 ft 184 kts 127°
2026-04-30 11:02 54.28116 18.25880 11403 ft 189 kts 144°
2026-04-30 11:02 54.26887 18.26766 11409 ft 190 kts 155°
2026-04-30 11:03 54.25659 18.27598 11405 ft 190 kts 153°
2026-04-30 11:03 54.24438 18.28436 11408 ft 190 kts 154°
2026-04-30 11:03 54.23217 18.29264 11402 ft 189 kts 154°
2026-04-30 11:04 54.20771 18.30918 11402 ft 189 kts 154°
2026-04-30 11:04 54.19543 18.31746 11408 ft 189 kts 154°
2026-04-30 11:04 54.18318 18.32575 11403 ft 190 kts 154°
2026-04-30 11:04 54.17100 18.33393 11415 ft 188 kts 154°
2026-04-30 11:05 54.15883 18.34220 11410 ft 189 kts 154°
2026-04-30 11:05 54.14669 18.35037 11416 ft 189 kts 154°
2026-04-30 11:05 54.13451 18.35858 11405 ft 188 kts 154°
2026-04-30 11:05 54.12227 18.36683 11410 ft 188 kts 154°
2026-04-30 11:06 54.11012 18.37500 11408 ft 187 kts 154°
2026-04-30 11:06 54.09808 18.38309 11417 ft 187 kts 154°
2026-04-30 11:06 54.08602 18.39121 11411 ft 186 kts 154°
2026-04-30 11:06 54.07399 18.39931 11413 ft 186 kts 154°
2026-04-30 11:07 54.06192 18.40740 11411 ft 186 kts 154°
2026-04-30 11:07 54.04990 18.41547 11411 ft 186 kts 154°
2026-04-30 11:07 54.03790 18.42354 11415 ft 185 kts 154°
2026-04-30 11:07 54.02588 18.43156 11424 ft 186 kts 154°
2026-04-30 11:08 54.01385 18.43961 11424 ft 186 kts 154°
2026-04-30 11:08 54.00169 18.44776 11429 ft 186 kts 154°
2026-04-30 11:08 53.98964 18.45581 11425 ft 186 kts 154°
2026-04-30 11:08 53.97758 18.46390 11418 ft 186 kts 154°
2026-04-30 11:09 53.96563 18.47186 11423 ft 186 kts 154°
2026-04-30 11:09 53.95363 18.47988 11426 ft 186 kts 154°
2026-04-30 11:09 53.94147 18.48800 11415 ft 186 kts 154°
2026-04-30 11:09 53.92934 18.49606 11416 ft 187 kts 154°
2026-04-30 11:10 53.91730 18.50411 11420 ft 187 kts 154°
2026-04-30 11:10 53.90520 18.51220 11420 ft 187 kts 154°
2026-04-30 11:10 53.89305 18.52024 11418 ft 188 kts 154°
2026-04-30 11:10 53.88090 18.52831 11423 ft 187 kts 154°
2026-04-30 11:11 53.86881 18.53637 11424 ft 188 kts 154°
2026-04-30 11:11 53.85649 18.54455 11423 ft 188 kts 154°
2026-04-30 11:11 53.84438 18.55259 11422 ft 187 kts 154°
2026-04-30 11:11 53.83221 18.56065 11427 ft 187 kts 154°
2026-04-30 11:12 53.82010 18.56871 11424 ft 187 kts 154°
2026-04-30 11:12 53.80796 18.57677 11424 ft 187 kts 154°
2026-04-30 11:12 53.79588 18.58475 11425 ft 187 kts 154°
2026-04-30 11:12 53.78368 18.59281 11425 ft 188 kts 154°
2026-04-30 11:13 53.77149 18.60088 11425 ft 189 kts 154°
2026-04-30 11:13 53.75931 18.60891 11430 ft 188 kts 154°
2026-04-30 11:13 53.74705 18.61728 11424 ft 187 kts 150°
2026-04-30 11:13 53.73518 18.62619 11430 ft 188 kts 152°
2026-04-30 11:14 53.72311 18.63479 11432 ft 189 kts 152°
2026-04-30 11:14 53.71108 18.64351 11434 ft 189 kts 152°
2026-04-30 11:14 53.69908 18.65223 11424 ft 188 kts 152°
2026-04-30 11:14 53.68705 18.66097 11428 ft 189 kts 152°
2026-04-30 11:15 53.67894 18.66689 11427 ft 189 kts 152°
2026-04-30 11:15 53.66690 18.67564 11427 ft 189 kts 152°
2026-04-30 11:15 53.65484 18.68443 11430 ft 189 kts 152°
2026-04-30 11:15 53.63874 18.69608 11433 ft 189 kts 152°
2026-04-30 11:16 53.63064 18.70197 11437 ft 190 kts 152°
2026-04-30 11:16 53.61856 18.71076 11433 ft 189 kts 152°
2026-04-30 11:16 53.60644 18.71948 11433 ft 189 kts 152°
2026-04-30 11:16 53.59432 18.72831 11427 ft 190 kts 152°
2026-04-30 11:17 53.58215 18.73712 11433 ft 190 kts 152°
2026-04-30 11:17 53.56998 18.74592 11431 ft 191 kts 152°
2026-04-30 11:17 53.55773 18.75479 11428 ft 191 kts 152°
2026-04-30 11:17 53.54551 18.76359 11430 ft 192 kts 152°
2026-04-30 11:18 53.53313 18.77253 11437 ft 192 kts 152°
2026-04-30 11:18 53.51054 18.79489 11423 ft 188 kts 135°
2026-04-30 11:18 53.50015 18.80833 11431 ft 189 kts 137°
2026-04-30 11:19 53.48966 18.82170 11440 ft 190 kts 136°
2026-04-30 11:19 53.47921 18.83511 11437 ft 190 kts 136°
2026-04-30 11:19 53.46871 18.84860 11431 ft 190 kts 136°
2026-04-30 11:19 53.45814 18.86215 11430 ft 190 kts 136°
2026-04-30 11:20 53.44778 18.87549 11437 ft 190 kts 136°
2026-04-30 11:20 53.43721 18.88905 11433 ft 190 kts 136°
2026-04-30 11:20 53.42672 18.90252 11429 ft 190 kts 136°
2026-04-30 11:20 53.41626 18.91588 11437 ft 190 kts 136°
2026-04-30 11:21 53.40568 18.92941 11437 ft 190 kts 136°
2026-04-30 11:21 53.39517 18.94287 11433 ft 191 kts 136°
2026-04-30 11:21 53.38460 18.95638 11430 ft 190 kts 136°
2026-04-30 11:21 53.37414 18.96976 11433 ft 190 kts 136°
2026-04-30 11:22 53.36358 18.98326 11433 ft 190 kts 136°
2026-04-30 11:22 53.35307 18.99669 11433 ft 190 kts 136°
2026-04-30 11:22 53.34260 19.01003 11433 ft 190 kts 136°
2026-04-30 11:22 53.33212 19.02335 11436 ft 189 kts 136°
2026-04-30 11:23 53.32164 19.03675 11436 ft 190 kts 136°
2026-04-30 11:23 53.31118 19.05005 11433 ft 189 kts 136°
2026-04-30 11:23 53.29030 19.07657 11436 ft 189 kts 136°
2026-04-30 11:24 53.27980 19.08995 11438 ft 189 kts 136°
2026-04-30 11:24 53.26923 19.10337 11442 ft 189 kts 136°
2026-04-30 11:24 53.25873 19.11671 11434 ft 190 kts 136°
2026-04-30 11:25 53.23780 19.14321 11435 ft 189 kts 136°
2026-04-30 11:25 53.22737 19.15641 11436 ft 189 kts 136°
2026-04-30 11:25 53.20631 19.18308 11435 ft 189 kts 136°
2026-04-30 11:26 53.18528 19.20951 11435 ft 189 kts 136°
2026-04-30 11:26 53.17486 19.22256 11434 ft 189 kts 136°
2026-04-30 11:26 53.16426 19.23588 11438 ft 190 kts 136°
2026-04-30 11:27 53.15374 19.24910 11438 ft 189 kts 136°
2026-04-30 11:27 53.14323 19.26226 11437 ft 189 kts 136°
2026-04-30 11:27 53.13278 19.27536 11431 ft 189 kts 136°
2026-04-30 11:27 53.12224 19.28856 11430 ft 189 kts 136°
2026-04-30 11:28 53.10121 19.31489 11432 ft 189 kts 136°
2026-04-30 11:28 53.09066 19.32807 11435 ft 189 kts 136°
2026-04-30 11:28 53.08017 19.34117 11438 ft 189 kts 136°
2026-04-30 11:29 53.06964 19.35432 11437 ft 189 kts 136°
2026-04-30 11:29 53.05914 19.36741 11439 ft 189 kts 136°
2026-04-30 11:29 53.03793 19.39386 11431 ft 190 kts 136°
2026-04-30 11:30 53.01687 19.42009 11437 ft 190 kts 136°
2026-04-30 11:30 53.00633 19.43320 11429 ft 190 kts 136°
2026-04-30 11:30 52.99573 19.44635 11428 ft 190 kts 136°
2026-04-30 11:31 52.98507 19.45959 11429 ft 191 kts 136°
2026-04-30 11:31 52.97433 19.47290 11428 ft 191 kts 136°
2026-04-30 11:31 52.96375 19.48606 11433 ft 191 kts 136°
2026-04-30 11:31 52.95315 19.49922 11434 ft 191 kts 136°
2026-04-30 11:32 52.94254 19.51251 11435 ft 190 kts 136°
2026-04-30 11:32 52.93198 19.52576 11434 ft 190 kts 136°
2026-04-30 11:32 52.92140 19.53901 11424 ft 190 kts 136°
2026-04-30 11:33 52.90037 19.56526 11432 ft 190 kts 136°
2026-04-30 11:33 52.88977 19.57850 11429 ft 190 kts 136°
2026-04-30 11:33 52.87920 19.59168 11423 ft 189 kts 136°
2026-04-30 11:33 52.86870 19.60474 11426 ft 189 kts 136°
2026-04-30 11:34 52.85828 19.61777 11430 ft 189 kts 136°
2026-04-30 11:34 52.84765 19.63100 11425 ft 190 kts 136°
2026-04-30 11:34 52.83713 19.64407 11420 ft 190 kts 136°
2026-04-30 11:34 52.82657 19.65722 11425 ft 190 kts 136°
2026-04-30 11:35 52.81601 19.67033 11431 ft 190 kts 136°
2026-04-30 11:35 52.80548 19.68342 11432 ft 190 kts 136°
2026-04-30 11:35 52.79488 19.69655 11423 ft 190 kts 136°
2026-04-30 11:35 52.78434 19.70964 11428 ft 190 kts 136°
2026-04-30 11:36 52.77370 19.72283 11425 ft 190 kts 136°
2026-04-30 11:36 52.76311 19.73596 11427 ft 190 kts 136°
2026-04-30 11:36 52.75259 19.74896 11422 ft 190 kts 136°
2026-04-30 11:36 52.74197 19.76209 11426 ft 190 kts 136°
2026-04-30 11:37 52.73134 19.77525 11427 ft 190 kts 136°
2026-04-30 11:37 52.72077 19.78831 11419 ft 190 kts 136°
2026-04-30 11:37 52.71025 19.80131 11421 ft 189 kts 136°
2026-04-30 11:37 52.69979 19.81423 11426 ft 189 kts 136°
2026-04-30 11:38 52.68975 19.82822 11423 ft 185 kts 128°
2026-04-30 11:38 52.68068 19.84312 11422 ft 185 kts 128°
2026-04-30 11:38 52.67144 19.85794 11423 ft 186 kts 128°
2026-04-30 11:38 52.66216 19.87272 11425 ft 186 kts 128°
2026-04-30 11:39 52.65286 19.88754 11423 ft 186 kts 128°
2026-04-30 11:39 52.64343 19.90257 11428 ft 187 kts 129°
2026-04-30 11:39 52.63411 19.91745 11408 ft 187 kts 128°
2026-04-30 11:39 52.62479 19.93229 11421 ft 187 kts 128°
2026-04-30 11:40 52.61540 19.94724 11420 ft 187 kts 128°
2026-04-30 11:40 52.60601 19.96219 11422 ft 187 kts 128°
2026-04-30 11:40 52.59673 19.97697 11416 ft 187 kts 128°
2026-04-30 11:40 52.58738 19.99182 11421 ft 187 kts 129°
2026-04-30 11:41 52.57795 20.00680 11422 ft 187 kts 129°
2026-04-30 11:41 52.56864 20.02156 11415 ft 187 kts 128°
2026-04-30 11:41 52.55931 20.03636 11414 ft 187 kts 129°
2026-04-30 11:41 52.55001 20.05109 11424 ft 187 kts 129°
2026-04-30 11:42 52.54055 20.06610 11420 ft 187 kts 129°
2026-04-30 11:42 52.53119 20.08093 11418 ft 187 kts 129°
2026-04-30 11:42 52.52184 20.09573 11418 ft 187 kts 129°
2026-04-30 11:42 52.51254 20.11040 11420 ft 187 kts 129°
2026-04-30 11:43 52.50313 20.12532 11423 ft 187 kts 129°
2026-04-30 11:43 52.49370 20.14018 11421 ft 187 kts 129°
2026-04-30 11:43 52.48441 20.15483 11415 ft 187 kts 129°
2026-04-30 11:43 52.47498 20.16975 11416 ft 187 kts 129°
2026-04-30 11:44 52.46566 20.18446 11412 ft 187 kts 129°
2026-04-30 11:44 52.45635 20.19910 11422 ft 187 kts 129°
2026-04-30 11:44 52.44696 20.21386 11413 ft 187 kts 129°
2026-04-30 11:44 52.43756 20.22866 11420 ft 187 kts 129°
2026-04-30 11:45 52.42815 20.24346 11417 ft 187 kts 129°
2026-04-30 11:45 52.41882 20.25813 11418 ft 187 kts 129°
2026-04-30 11:45 52.40949 20.27280 11419 ft 187 kts 129°
2026-04-30 11:45 52.40000 20.28769 11418 ft 187 kts 129°
2026-04-30 11:46 52.39069 20.30228 11418 ft 186 kts 129°
2026-04-30 11:46 52.38131 20.31699 11420 ft 186 kts 129°
2026-04-30 11:46 52.37196 20.33166 11417 ft 187 kts 129°
2026-04-30 11:46 52.36259 20.34631 11421 ft 187 kts 129°
2026-04-30 11:47 52.35312 20.36112 11420 ft 186 kts 129°
2026-04-30 11:47 52.34377 20.37576 11420 ft 187 kts 129°
2026-04-30 11:47 52.33445 20.39034 11417 ft 187 kts 129°
2026-04-30 11:47 52.32500 20.40509 11416 ft 187 kts 129°
2026-04-30 11:48 52.31561 20.41974 11418 ft 188 kts 129°
2026-04-30 11:48 52.30617 20.43446 11417 ft 188 kts 129°
2026-04-30 11:48 52.29671 20.44920 11415 ft 187 kts 129°
2026-04-30 11:48 52.28727 20.46392 11416 ft 187 kts 129°
2026-04-30 11:49 52.27790 20.47852 11417 ft 187 kts 129°
2026-04-30 11:49 52.26847 20.49319 11416 ft 187 kts 129°
2026-04-30 11:49 52.25902 20.50788 11414 ft 188 kts 129°
2026-04-30 11:49 52.24960 20.52253 11415 ft 187 kts 129°
2026-04-30 11:50 52.24018 20.53717 11416 ft 187 kts 129°
2026-04-30 11:50 52.23071 20.55183 11415 ft 188 kts 129°
2026-04-30 11:50 52.22127 20.56648 11413 ft 188 kts 129°
2026-04-30 11:50 52.21183 20.58113 11411 ft 187 kts 129°
2026-04-30 11:51 52.20232 20.59586 11414 ft 187 kts 129°
2026-04-30 11:51 52.19287 20.61049 11416 ft 187 kts 129°
2026-04-30 11:51 52.18344 20.62512 11412 ft 188 kts 129°
2026-04-30 11:51 52.17398 20.63971 11416 ft 187 kts 129°
2026-04-30 11:52 52.16456 20.65427 11418 ft 187 kts 129°
2026-04-30 11:52 52.15501 20.66902 11416 ft 188 kts 129°
2026-04-30 11:52 52.14563 20.68352 11413 ft 187 kts 129°
2026-04-30 11:52 52.13618 20.69811 11416 ft 188 kts 129°
2026-04-30 11:53 52.12667 20.71273 11417 ft 188 kts 129°
2026-04-30 11:53 52.11721 20.72732 11419 ft 188 kts 129°
2026-04-30 11:53 52.10766 20.74208 11416 ft 188 kts 129°
2026-04-30 11:53 52.09817 20.75664 11419 ft 188 kts 129°
2026-04-30 11:54 52.08870 20.77120 11418 ft 188 kts 129°
2026-04-30 11:54 52.07920 20.78579 11420 ft 189 kts 129°
2026-04-30 11:54 52.06967 20.80048 11419 ft 189 kts 129°
2026-04-30 11:54 52.06010 20.81513 11415 ft 189 kts 129°
2026-04-30 11:55 52.05056 20.82977 11414 ft 188 kts 129°
2026-04-30 11:55 52.04103 20.84439 11419 ft 188 kts 129°
2026-04-30 11:55 52.03154 20.85894 11416 ft 188 kts 129°
2026-04-30 11:55 52.02520 20.86865 11421 ft 188 kts 129°
2026-04-30 11:56 52.01571 20.88315 11415 ft 188 kts 129°
2026-04-30 11:56 52.00619 20.89773 11416 ft 188 kts 129°
2026-04-30 11:56 51.99665 20.91231 11417 ft 188 kts 129°
2026-04-30 11:56 51.98707 20.92693 11416 ft 188 kts 129°
2026-04-30 11:57 51.97755 20.94147 11418 ft 188 kts 129°
2026-04-30 11:57 51.96808 20.95594 11421 ft 189 kts 129°
2026-04-30 11:57 51.95845 20.97061 11412 ft 188 kts 129°
2026-04-30 11:57 51.94900 20.98499 11413 ft 188 kts 129°
2026-04-30 11:58 51.93947 20.99955 11412 ft 188 kts 129°
2026-04-30 11:58 51.92987 21.01417 11412 ft 188 kts 129°
2026-04-30 11:58 51.92040 21.02855 11406 ft 188 kts 129°
2026-04-30 11:58 51.91087 21.04305 11409 ft 188 kts 129°
2026-04-30 11:59 51.90127 21.05763 11411 ft 188 kts 129°
2026-04-30 11:59 51.89173 21.07213 11409 ft 188 kts 129°
2026-04-30 11:59 51.88223 21.08655 11400 ft 188 kts 129°
2026-04-30 11:59 51.87265 21.10106 11399 ft 189 kts 129°
2026-04-30 12:00 51.86310 21.11555 11404 ft 189 kts 129°
2026-04-30 12:00 51.85344 21.13019 11400 ft 189 kts 130°
2026-04-30 12:00 51.84390 21.14462 11394 ft 189 kts 130°
2026-04-30 12:00 51.83432 21.15912 11393 ft 189 kts 129°
2026-04-30 12:01 51.82468 21.17369 11395 ft 188 kts 130°
2026-04-30 12:01 51.81513 21.18812 11393 ft 188 kts 129°
2026-04-30 12:01 51.80558 21.20257 11402 ft 188 kts 130°
2026-04-30 12:01 51.79605 21.21693 11401 ft 188 kts 130°
2026-04-30 12:02 51.78651 21.23133 11403 ft 188 kts 130°
2026-04-30 12:02 51.77691 21.24581 11401 ft 188 kts 130°
2026-04-30 12:02 51.76729 21.26028 11401 ft 187 kts 130°
2026-04-30 12:02 51.75781 21.27458 11406 ft 188 kts 130°
2026-04-30 12:03 51.74826 21.28897 11405 ft 188 kts 130°
2026-04-30 12:03 51.72923 21.31761 11404 ft 188 kts 130°
2026-04-30 12:03 51.71956 21.33205 11406 ft 187 kts 130°
2026-04-30 12:04 51.71011 21.34621 11403 ft 187 kts 130°
2026-04-30 12:04 51.70060 21.36054 11402 ft 186 kts 130°
2026-04-30 12:04 51.69096 21.37491 11134 ft 189 kts 130°
2026-04-30 12:04 51.68138 21.38922 10862 ft 188 kts 130°
2026-04-30 12:05 51.67186 21.40354 10586 ft 187 kts 130°
2026-04-30 12:05 51.66219 21.41795 10310 ft 187 kts 131°
2026-04-30 12:05 51.65223 21.43127 10025 ft 189 kts 143°
2026-04-30 12:05 51.64115 21.44146 9995 ft 177 kts 143°
2026-04-30 12:06 51.63090 21.45150 9991 ft 169 kts 142°
2026-04-30 12:06 51.62098 21.46118 9991 ft 165 kts 142°
2026-04-30 12:06 51.61112 21.47069 9987 ft 164 kts 143°
2026-04-30 12:06 51.60136 21.48005 9997 ft 166 kts 142°
2026-04-30 12:07 51.59132 21.48978 10003 ft 168 kts 143°
2026-04-30 12:07 51.58123 21.49941 10008 ft 170 kts 143°
2026-04-30 12:07 51.57107 21.50915 10011 ft 171 kts 143°
2026-04-30 12:07 51.56079 21.51902 10001 ft 172 kts 143°
2026-04-30 12:08 51.54999 21.52939 9722 ft 186 kts 144°
2026-04-30 12:08 51.53868 21.54016 9437 ft 191 kts 145°
2026-04-30 12:08 51.52728 21.55096 9157 ft 192 kts 145°
2026-04-30 12:08 51.51574 21.56200 8871 ft 192 kts 145°
2026-04-30 12:09 51.50437 21.57289 8598 ft 192 kts 145°
2026-04-30 12:09 51.49297 21.58383 8414 ft 186 kts 146°
2026-04-30 12:09 51.48198 21.59436 8264 ft 185 kts 146°
2026-04-30 12:09 51.47094 21.60486 8105 ft 185 kts 146°
2026-04-30 12:10 51.45988 21.61537 7947 ft 182 kts 146°
2026-04-30 12:10 51.44901 21.62589 7795 ft 181 kts 146°
2026-04-30 12:10 51.43815 21.63620 7645 ft 182 kts 146°
2026-04-30 12:10 51.42732 21.64651 7494 ft 181 kts 147°
2026-04-30 12:11 51.41645 21.65680 7334 ft 179 kts 147°
2026-04-30 12:11 51.40575 21.66693 7185 ft 179 kts 147°
2026-04-30 12:11 51.39520 21.67710 7039 ft 179 kts 147°
2026-04-30 12:11 51.38435 21.68747 6890 ft 180 kts 147°
2026-04-30 12:12 51.37366 21.69759 6740 ft 178 kts 147°
2026-04-30 12:12 51.36290 21.70780 6576 ft 179 kts 148°
2026-04-30 12:12 51.35223 21.71788 6413 ft 179 kts 148°
2026-04-30 12:12 51.34161 21.72808 6252 ft 179 kts 147°
2026-04-30 12:13 51.33086 21.73832 6096 ft 177 kts 147°
2026-04-30 12:13 51.32299 21.75268 5908 ft 174 kts 110°
2026-04-30 12:13 51.31917 21.77085 5757 ft 173 kts 105°
2026-04-30 12:13 51.31548 21.78905 5601 ft 172 kts 106°
2026-04-30 12:14 51.31180 21.80759 5446 ft 174 kts 105°
2026-04-30 12:14 51.30816 21.82612 5299 ft 176 kts 105°
2026-04-30 12:14 51.30454 21.84454 5131 ft 174 kts 105°
2026-04-30 12:14 51.30105 21.86322 4990 ft 176 kts 105°
2026-04-30 12:15 51.29762 21.88129 4983 ft 166 kts 105°
2026-04-30 12:15 51.29425 21.89888 4994 ft 164 kts 105°
2026-04-30 12:15 51.29089 21.91640 4990 ft 165 kts 106°
2026-04-30 12:15 51.28750 21.93385 4979 ft 164 kts 105°
2026-04-30 12:16 51.28429 21.95102 4994 ft 163 kts 104°
2026-04-30 12:16 51.28101 21.96815 4992 ft 157 kts 105°
2026-04-30 12:16 51.27784 21.98468 4999 ft 158 kts 105°
2026-04-30 12:16 51.27462 22.00156 4985 ft 159 kts 105°
2026-04-30 12:17 51.26828 22.03525 4993 ft 160 kts 105°
2026-04-30 12:17 51.26500 22.05242 4990 ft 160 kts 104°
2026-04-30 12:17 51.26179 22.06951 5002 ft 163 kts 106°
2026-04-30 12:18 51.25861 22.08677 4994 ft 161 kts 100°
2026-04-30 12:18 51.25696 22.10419 4994 ft 160 kts 97°
2026-04-30 12:18 51.25537 22.12200 4981 ft 161 kts 94°
2026-04-30 12:18 51.25383 22.13978 4993 ft 162 kts 96°
2026-04-30 12:19 51.25223 22.15752 4997 ft 165 kts 96°
2026-04-30 12:19 51.25041 22.17563 4996 ft 164 kts 96°
2026-04-30 12:19 51.24898 22.19341 4978 ft 160 kts 95°
2026-04-30 12:19 51.24742 22.21128 4978 ft 162 kts 96°
2026-04-30 12:20 51.24591 22.22920 4992 ft 165 kts 96°
2026-04-30 12:20 51.24437 22.24727 4994 ft 164 kts 96°
2026-04-30 12:20 51.24287 22.26543 4991 ft 163 kts 95°
2026-04-30 12:20 51.24127 22.28328 4983 ft 162 kts 96°
2026-04-30 12:21 51.23967 22.30107 4979 ft 161 kts 96°
2026-04-30 12:21 51.23812 22.31865 4979 ft 161 kts 96°
2026-04-30 12:21 51.23656 22.33656 4990 ft 162 kts 96°
2026-04-30 12:21 51.23493 22.35458 4992 ft 166 kts 98°
2026-04-30 12:22 51.23333 22.37280 4989 ft 168 kts 96°
2026-04-30 12:22 51.23172 22.39157 4966 ft 169 kts 97°
2026-04-30 12:22 51.23004 22.40965 4976 ft 165 kts 96°
2026-04-30 12:22 51.22846 22.42775 4975 ft 163 kts 96°
2026-04-30 12:23 51.22691 22.44570 4971 ft 164 kts 96°
2026-04-30 12:23 51.22542 22.46335 4971 ft 161 kts 96°
2026-04-30 12:23 51.22513 22.48119 4982 ft 161 kts 85°
2026-04-30 12:23 51.22589 22.49916 4970 ft 163 kts 84°
2026-04-30 12:24 51.22656 22.51700 4970 ft 159 kts 84°
2026-04-30 12:24 51.22729 22.53489 4968 ft 161 kts 84°
2026-04-30 12:24 51.22750 22.54068 4966 ft 160 kts 84°